TimeMST,TemperatureF,Dew PointF,Humidity,Sea Level PressureIn,VisibilityMPH,Wind Direction,Wind SpeedMPH,Gust SpeedMPH,PrecipitationIn,Events,Conditions,WindDirDegrees,DateUTC
12:53 AM,32.0,19.0,59,30.20,10.0,SW,23.0,33.4,N/A,,Clear,220,2013-01-09 07:53:00
1:53 AM,30.9,19.9,64,30.22,10.0,SW,21.9,28.8,N/A,,Clear,220,2013-01-09 08:53:00
2:53 AM,32.0,21.0,64,30.22,10.0,SW,21.9,31.1,N/A,,Clear,220,2013-01-09 09:53:00
3:53 AM,30.9,21.0,67,30.23,10.0,SSW,21.9,28.8,N/A,,Clear,210,2013-01-09 10:53:00
4:53 AM,32.0,19.9,61,30.23,10.0,SW,16.1,24.2,N/A,,Clear,220,2013-01-09 11:53:00
5:53 AM,33.1,19.9,59,30.22,10.0,SW,20.7,26.5,N/A,,Clear,230,2013-01-09 12:53:00
6:53 AM,33.1,19.9,59,30.25,10.0,SW,21.9,28.8,N/A,,Clear,220,2013-01-09 13:53:00
7:53 AM,33.1,19.9,59,30.25,10.0,SSW,25.3,36.8,N/A,,Clear,210,2013-01-09 14:53:00
8:53 AM,34.0,21.0,59,30.25,10.0,SSW,21.9,31.1,N/A,,Clear,210,2013-01-09 15:53:00
9:53 AM,37.9,21.9,53,30.19,10.0,SW,24.2,34.5,N/A,,Clear,220,2013-01-09 16:53:00
10:53 AM,42.1,21.0,43,30.16,10.0,SW,28.8,38.0,N/A,,Clear,220,2013-01-09 17:53:00
11:53 AM,44.1,19.9,38,30.13,10.0,SSW,26.5,38.0,N/A,,Clear,210,2013-01-09 18:53:00
12:53 PM,46.0,19.9,35,30.08,10.0,SSW,29.9,39.1,N/A,,Clear,210,2013-01-09 19:53:00
1:53 PM,46.9,19.0,33,30.07,10.0,SSW,27.6,34.5,N/A,,Clear,200,2013-01-09 20:53:00
2:53 PM,46.9,18.0,32,30.04,10.0,SW,29.9,39.1,N/A,,Clear,220,2013-01-09 21:53:00
3:53 PM,46.0,18.0,33,30.03,10.0,SW,27.6,35.7,N/A,,Clear,220,2013-01-09 22:53:00
4:53 PM,43.0,17.1,35,30.02,10.0,SSW,18.4,-,N/A,,Clear,210,2013-01-09 23:53:00
5:53 PM,44.1,16.0,32,29.99,10.0,SW,19.6,28.8,N/A,,Clear,220,2013-01-10 00:53:00
6:53 PM,43.0,15.1,32,29.98,10.0,SSW,11.5,18.4,N/A,,Clear,200,2013-01-10 01:53:00
7:53 PM,43.0,15.1,32,29.95,10.0,SSW,26.5,34.5,N/A,,Clear,210,2013-01-10 02:53:00
8:53 PM,44.1,14.0,30,29.91,10.0,SSW,36.8,48.3,N/A,,Clear,200,2013-01-10 03:53:00
9:53 PM,43.0,14.0,31,29.90,10.0,SSW,31.1,41.4,N/A,,Clear,210,2013-01-10 04:53:00
10:53 PM,43.0,12.9,30,29.86,10.0,SW,27.6,40.3,N/A,,Clear,220,2013-01-10 05:53:00
11:53 PM,42.1,12.9,31,29.83,10.0,SW,25.3,33.4,N/A,,Clear,230,2013-01-10 06:53:00